Regional Weather Roundup
Issued by NWS

Home | Current Version | Previous Version | Text Only | Print | Product List | Glossary Off
Versions: 1 2 3 4 5 6 7 8 9 10 11 12 13 14 15 16 17 18 19 20 21 22 23 24 25 26 27 28 29 30 31 32 33 34 35 36 37 38 39 40 41 42 43 44 45 46 47 48 49 50

926
ASUS45 KCYS 201210
RWRWY

WYOMING REGIONAL WEATHER ROUNDUP
NATIONAL WEATHER SERVICE CHEYENNE WY
600 AM MDT SUN AUG 20 2017

NOTE:  "FAIR" INDICATES FEW OR NO CLOUDS BELOW 12,000 FEET
WITH NO SIGNIFICANT WEATHER AND/OR OBSTRUCTIONS TO VISIBILITY.

WYZ001-201300-
YELLOWSTONE NATIONAL PARK

CITY           SKY/WX    TMP DP  RH WIND       PRES   REMARKS
LK YELLOWSTONE   N/A     35  32  88 NW3       30.25R
6HR MIN TEMP:  35; 6HR MAX TEMP:  43;

W YELLOWSTONE  NOT AVBL

$$
WYZ002>013-054>058-071-098>099-201300-
NORTHERN WYOMING

CITY           SKY/WX    TMP DP  RH WIND       PRES   REMARKS
JACKSON        FAIR      41  32  70 NE6       30.17R
CODY           FAIR      51  37  58 S3        30.10R
GREYBULL       FAIR      58  37  45 W8        30.01R
6HR MIN TEMP:  57; 6HR MAX TEMP:  71;

WORLAND        FAIR      51  38  60 S7        30.04R
6HR MIN TEMP:  49; 6HR MAX TEMP:  67;

SHERIDAN       FAIR      47  40  76 SW6       30.07R
6HR MIN TEMP:  47; 6HR MAX TEMP:  59;

BUFFALO        FAIR      53  36  52 W5        30.11S
6HR MIN TEMP:  53; 6HR MAX TEMP:  65;

GILLETTE       FAIR      50  42  74 CALM      30.06R
6HR MIN TEMP:  50; 6HR MAX TEMP:  69;

HULETT         FAIR      55  46  71 N7        30.08R
NEWCASTLE      FAIR      55  36  47 CALM      30.06R

$$
WYZ014>020-022>026-101>103-201300-
CENTRAL WYOMING

CITY           SKY/WX    TMP DP  RH WIND       PRES   REMARKS
BIG PINEY      FAIR      39  29  67 CALM      30.23R
6HR MIN TEMP:  37; 6HR MAX TEMP:  48;

PINEDALE       FAIR      36  30  80 W5        30.24S WCI  32
DUBOIS         FAIR      43  27  52 NW5       30.20S
LANDER           N/A    N/A N/A N/A MISG      30.10R
RIVERTON       FAIR      52  32  46 NW6       30.08R
6HR MIN TEMP:  52; 6HR MAX TEMP:  66;

CASPER         FAIR      48  36  63 W8        30.11S
6HR MIN TEMP:  47; 6HR MAX TEMP:  59;

DOUGLAS        FAIR      49  40  71 CALM      30.11R
6HR MIN TEMP:  49; 6HR MAX TEMP:  69;


$$
WYZ021-027>030-104>119-201300-
SOUTHERN WYOMING

CITY           SKY/WX    TMP DP  RH WIND       PRES   REMARKS
EVANSTON       FAIR      55  36  48 SE7       30.22S
6HR MIN TEMP:  54; 6HR MAX TEMP:  64;

FORT BRIDGER   SUNNY     59  34  38 W9        30.24S
ROCK SPRINGS   FAIR      57  34  41 S5        30.20R
6HR MIN TEMP:  57; 6HR MAX TEMP:  66;

RAWLINS        MOCLDY    50  31  48 N3        30.20S
6HR MIN TEMP:  48; 6HR MAX TEMP:  64;

SARATOGA       FAIR      46  32  57 W3        30.24R
LARAMIE        FAIR      48  31  51 S7        30.23R
6HR MIN TEMP:  46; 6HR MAX TEMP:  51;

CHEYENNE       FAIR      62  28  27 W10       30.13R
6HR MIN TEMP:  57; 6HR MAX TEMP:  63;

TORRINGTON     FAIR      56  42  59 N9        30.02R
6HR MIN TEMP:  52; 6HR MAX TEMP:  62;

PINE BLUFFS    FAIR      48  39  71 CALM      30.07R

$$




USA.gov is the U.S. government's official web portal to all federal, state and local government web resources and services.